RH
36 37 39 40 42 42 40 38 37 37 38 40 41 43 45 49 52 54 53 53 54 55 57 62 70 78 84 84 82 80 77 78 81 85 88 87 85 81 78 74 68 62 58 56 53 50 46 44 42 42 42 43 45 47 49 51 51 51 50 47 44 42 42 43 44 46 47 48 48 48 47 46 45 45 45 44 42 39 37 34 32 30 28 27 27 27
38 39 41 41 41 40 38 37 37 39 40 42 43 45 48 52 54 55 55 56 57 59 62 68 76 83 85 83 81 78 78 81 85 88 87 86 83 80 77 73 67 61 57 54 51 47 44 43 43 43 44 45 47 48 50 50 50 49 47 45 44 44 45 46 47 48 49 49 49 48 47 46 46 44 43 41 39 36 34 32 31 29 28 27 27 27
40 41 41 40 39 38 38 39 40 41 42 43 45 48 52 54 56 57 58 59 60 63 67 75 82 85 85 82 79 78 79 84 87 88 87 85 82 79 76 71 65 59 56 52 49 46 44 44 44 45 46 47 48 49 50 50 49 47 45 43 43 43 44 46 47 48 49 49 49 49 48 47 46 44 42 39 37 35 33 32 31 29 28 28 28 28
40 40 40 39 39 40 41 42 42 43 44 46 48 52 55 57 59 61 62 63 65 68 74 81 85 85 84 81 79 80 82 86 88 88 86 84 81 79 76 70 63 58 54 51 47 45 45 46 46 47 47 48 49 49 48 47 46 44 41 40 40 41 42 44 45 47 48 49 49 49 48 47 45 43 40 38 36 34 33 32 31 30 29 28 28 28
39 40 40 40 41 42 43 44 44 45 47 50 53 56 59 61 63 64 65 67 70 74 81 85 85 84 82 80 80 81 83 87 88 87 85 83 81 79 76 68 62 57 53 50 47 46 47 48 48 48 48 48 47 46 44 42 40 38 37 37 38 39 41 43 45 47 48 49 49 48 48 46 44 41 39 37 36 34 33 32 31 30 29 28 27 26
40 40 40 41 42 43 44 45 47 49 51 54 57 60 62 64 66 68 70 72 75 79 84 85 85 83 81 79 79 81 85 87 88 86 84 82 81 79 74 65 60 56 52 49 48 48 49 49 49 49 48 46 44 41 38 36 34 33 33 35 37 39 42 44 46 47 48 48 48 47 46 44 42 40 38 36 35 34 33 32 30 29 28 27 25 24
41 41 42 43 44 45 47 48 51 53 56 59 62 64 65 67 70 72 74 76 80 83 85 84 83 81 79 78 79 81 86 87 87 85 83 82 82 78 71 63 58 55 52 50 49 50 50 50 49 48 46 42 39 35 32 31 30 31 33 36 38 41 43 45 46 47 48 47 47 46 44 42 40 38 37 36 35 33 32 31 29 27 25 24 22 21
42 42 43 45 46 48 50 52 55 58 61 63 65 67 68 70 71 74 77 80 83 84 85 84 82 80 77 77 79 83 86 86 85 84 82 83 81 77 67 61 57 55 51 50 50 50 51 50 48 45 41 37 33 30 27 27 28 31 34 38 40 42 44 45 45 46 46 45 44 43 41 39 38 36 35 34 33 32 30 28 26 24 22 20 19 18
44 44 45 47 50 52 54 57 59 62 64 65 67 69 70 72 75 77 81 84 85 85 85 84 82 80 78 79 81 84 85 84 83 82 82 83 80 73 64 60 57 54 51 51 51 51 50 48 44 40 36 32 29 26 25 25 27 31 35 38 40 42 42 43 43 42 42 41 40 39 38 36 35 34 33 32 31 29 27 25 23 21 19 18 17 16
47 48 49 51 53 56 59 62 63 65 65 67 68 70 72 75 79 82 85 86 86 86 86 85 83 81 79 81 82 83 82 82 81 82 83 82 77 69 62 59 56 53 52 51 51 49 47 44 40 36 32 29 26 25 23 23 25 29 33 35 37 38 39 39 38 38 37 36 35 34 33 32 31 31 30 29 27 26 24 23 21 19 17 16 16 16
51 52 53 55 58 61 64 65 66 67 67 68 70 72 75 79 82 84 85 84 84 85 85 84 83 81 80 81 82 82 80 80 81 82 84 79 72 65 61 58 55 53 51 51 49 46 43 39 35 31 28 26 25 24 22 22 24 26 29 31 32 33 33 33 33 32 32 31 30 30 29 28 27 27 26 26 25 24 23 21 19 18 16 16 16 16
55 56 58 60 62 64 66 68 68 68 69 70 72 75 79 82 84 84 84 84 84 84 85 83 81 80 81 83 83 82 81 80 81 82 81 74 67 62 60 56 54 52 51 49 46 42 38 35 31 28 26 24 23 22 21 21 22 23 25 26 27 28 28 28 27 27 26 26 25 25 25 24 24 24 23 23 23 22 22 21 19 18 17 16 16 16
59 60 62 64 65 67 68 69 70 70 71 73 76 80 84 84 85 85 85 85 85 85 85 83 81 80 81 83 84 84 82 81 81 79 76 68 64 61 58 55 52 50 49 45 42 38 35 32 29 26 24 23 22 21 20 20 20 21 22 23 23 23 23 23 23 23 22 22 22 22 22 22 22 22 22 22 22 22 22 21 20 19 18 17 16 17
62 63 65 66 67 68 69 70 71 72 74 77 80 82 84 84 83 83 84 85 85 85 84 83 83 83 83 84 84 84 83 81 78 75 69 65 62 59 56 53 50 48 45 41 38 35 33 30 27 25 23 21 20 20 19 19 20 20 20 20 21 21 21 20 20 20 20 20 20 20 20 21 21 21 21 21 22 22 22 22 21 20 19 18 17 17
63 65 66 67 68 69 70 72 74 76 79 80 81 81 82 82 82 83 83 84 84 84 84 84 85 85 86 85 85 84 82 79 75 70 65 63 60 57 53 51 48 45 41 38 36 33 31 28 26 23 21 20 19 19 19 19 19 20 20 20 20 19 19 20 19 20 19 20 20 20 20 20 20 21 21 21 22 22 22 22 21 21 20 19 18 17
64 66 66 67 68 70 71 74 77 79 80 81 81 82 83 83 84 85 85 85 85 85 85 86 87 88 87 85 83 81 79 76 71 67 63 60 57 54 51 48 45 41 38 36 34 32 29 26 24 21 20 19 19 19 19 20 20 20 20 20 20 20 20 20 19 19 19 19 19 19 20 20 20 20 21 21 22 22 22 22 22 21 20 19 19 18
65 66 67 68 69 71 74 76 78 79 81 82 83 84 85 86 86 87 86 86 86 86 87 87 88 88 87 83 81 78 76 72 68 64 62 58 55 52 49 45 42 39 37 35 33 30 27 24 22 21 20 20 20 20 20 21 21 21 21 21 21 21 20 20 20 20 20 19 19 19 19 20 20 20 20 21 22 22 23 23 22 22 21 20 20 19
65 66 67 69 71 74 76 78 79 81 82 84 86 87 87 87 86 86 86 86 86 87 87 87 86 85 82 79 77 75 73 69 65 62 59 55 52 49 46 42 40 38 36 34 31 28 25 23 21 20 20 21 21 21 22 22 22 22 22 22 21 21 21 21 20 20 20 20 19 19 19 19 20 20 20 21 22 22 23 23 23 22 22 21 21 20
66 67 70 73 75 77 78 79 81 83 85 87 88 88 87 86 86 86 86 87 87 87 87 86 84 81 78 76 74 72 69 66 63 60 56 53 49 46 42 40 38 36 34 32 29 26 24 22 21 21 21 22 22 23 23 23 23 23 23 22 22 22 21 21 21 21 20 20 20 20 20 20 20 20 21 21 22 22 23 23 23 23 23 22 22 21
67 70 73 75 76 78 79 80 82 84 87 88 88 87 87 86 86 86 87 87 87 86 86 84 81 78 76 74 72 69 67 64 61 57 53 50 46 42 39 38 36 34 32 29 27 25 23 22 22 22 22 23 23 24 24 24 24 23 23 23 22 22 22 22 21 21 21 21 20 20 20 20 20 21 21 22 22 23 23 24 24 24 24 23 23 23
70 72 73 74 76 77 78 79 81 83 84 85 86 86 86 86 86 87 87 87 86 85 83 81 79 77 76 73 70 67 65 62 58 55 51 47 43 40 37 36 34 32 29 27 25 24 23 23 23 23 23 24 24 25 25 25 24 24 24 24 23 23 23 23 23 22 22 22 21 21 21 21 21 21 22 22 23 23 24 24 25 25 25 25 24 24
70 71 72 73 74 75 76 77 78 79 81 83 84 85 85 86 86 87 87 86 85 84 82 80 78 76 74 71 68 65 62 58 55 51 47 43 40 37 35 34 32 30 27 25 24 24 23 23 24 24 25 25 25 25 26 25 25 25 25 25 25 25 24 24 24 24 23 23 22 22 22 22 22 22 23 23 24 24 25 25 26 26 26 26 26 26
70 70 70 71 71 72 73 75 77 80 82 84 85 85 86 87 87 86 85 85 84 83 81 79 77 74 71 69 66 63 59 55 51 47 44 40 38 35 33 32 30 28 26 25 24 24 24 25 25 25 26 26 26 26 26 26 26 26 26 26 26 26 26 26 25 25 25 24 24 24 23 23 23 23 24 25 25 26 26 27 27 27 27 27 28 28
71 70 69 69 70 71 74 79 82 85 86 87 87 87 87 86 86 85 84 84 83 82 80 77 74 72 70 68 65 61 55 51 46 43 40 38 36 33 31 29 28 26 25 25 25 25 25 26 26 27 27 27 27 27 27 27 27 27 27 27 27 27 27 27 27 27 26 26 26 25 25 25 25 25 25 26 27 27 28 28 28 29 29 29 29 30
72 71 71 71 73 76 80 84 87 88 88 87 87 87 86 86 85 84 84 83 81 79 77 74 72 70 68 64 60 55 50 45 41 38 37 35 34 32 29 28 26 26 25 25 25 26 27 27 27 27 27 27 27 27 27 27 27 28 28 28 28 28 28 28 28 28 28 28 27 27 27 27 27 27 28 28 29 29 29 30 30 30 31 31 31 31
76 75 75 76 78 81 85 87 88 88 88 87 87 87 86 86 85 84 84 82 79 76 73 71 69 67 64 59 54 49 43 39 36 35 34 33 33 31 28 27 26 26 26 26 27 27 28 28 28 28 28 28 28 28 28 28 28 28 28 28 29 29 29 29 30 30 30 30 30 29 29 29 29 29 30 30 30 31 31 31 31 32 32 32 32 32
79 79 79 81 84 86 88 88 88 88 87 87 87 87 86 85 85 83 81 78 75 72 70 68 66 62 57 52 47 42 38 36 34 33 32 33 32 31 28 27 27 27 27 27 28 28 28 28 28 28 28 28 28 28 28 28 28 28 29 29 30 30 30 31 31 31 32 32 32 32 32 32 32 32 32 32 32 33 33 33 33 33 33 33 33 33
83 83 84 85 86 87 87 87 86 86 86 85 85 84 84 82 81 79 75 72 70 68 67 64 60 55 50 45 40 37 35 34 33 32 32 32 31 30 28 27 27 28 28 29 29 29 29 29 29 29 29 29 29 28 29 28 29 29 29 30 30 31 32 32 33 33 33 34 34 34 34 34 34 34 34 34 34 34 35 35 34 34 34 34 34 34
84 84 84 84 83 82 81 81 81 81 81 80 79 78 77 75 73 71 69 67 65 64 62 58 54 49 44 40 37 35 33 33 32 32 31 32 31 30 28 28 28 29 30 30 30 30 30 29 29 29 29 29 29 29 29 29 29 29 30 31 31 32 33 33 34 34 35 35 36 36 36 37 37 37 37 37 37 37 37 37 36 36 36 35 35 35
81 80 79 77 76 75 74 73 73 73 73 72 71 69 68 66 64 63 62 61 60 59 57 53 49 44 41 38 36 35 33 32 32 32 32 32 31 29 28 29 29 30 31 31 31 31 30 30 30 30 30 29 29 29 29 29 29 30 30 31 32 33 34 34 35 36 37 37 38 38 39 39 39 40 40 40 40 40 40 39 39 38 38 37 37 37
77 76 74 72 70 68 67 67 66 66 66 65 64 63 62 60 58 57 57 57 56 55 52 48 44 41 38 37 37 36 34 33 32 32 32 32 31 30 29 30 31 31 32 32 32 32 32 31 30 30 30 30 29 29 29 29 30 30 31 32 33 33 34 35 36 37 38 38 39 40 41 41 42 42 43 43 43 43 43 42 42 41 41 41 41 41
74 72 69 67 65 64 63 63 62 62 62 62 61 60 59 58 57 56 55 55 54 51 48 44 41 39 37 36 36 36 35 33 33 33 32 32 31 31 30 31 32 33 33 33 33 33 33 32 31 31 30 30 30 29 29 30 30 31 31 32 33 34 34 35 36 37 38 39 40 41 42 43 44 44 45 45 46 46 46 46 45 45 44 44 45 45
72 69 67 65 63 61 60 61 61 61 62 61 60 59 58 58 57 56 56 54 51 48 44 41 38 37 36 36 35 35 34 33 33 32 32 32 32 32 32 33 34 34 34 34 34 34 34 33 32 31 31 31 30 30 30 30 31 31 32 33 34 34 35 36 37 38 39 40 40 41 43 44 45 46 47 47 48 48 49 49 49 48 48 48 48 48
70 68 66 64 63 62 61 61 61 62 62 61 60 59 59 58 58 57 55 52 48 43 39 37 36 36 36 36 35 34 33 33 33 32 32 32 32 33 34 35 35 36 36 36 35 35 34 34 33 33 32 32 32 32 32 32 32 32 33 34 34 35 36 36 38 38 39 40 41 42 43 44 46 47 48 49 49 50 50 51 51 51 50 50 50 50
69 68 66 65 64 63 63 63 63 62 62 61 60 60 59 59 58 56 53 49 44 40 36 35 35 35 36 36 35 35 34 34 33 33 32 33 34 35 35 36 37 37 37 37 37 36 35 35 34 34 34 33 33 33 33 33 34 34 35 35 36 36 37 38 38 39 40 41 42 43 44 45 46 47 49 49 50 51 51 52 52 52 52 51 51 51
67 67 67 66 65 65 64 64 63 63 62 61 60 60 59 58 57 54 50 45 41 37 35 34 34 35 35 35 35 35 34 34 34 33 34 34 35 36 37 38 38 38 38 38 38 37 37 36 36 35 35 35 35 34 34 35 36 36 36 37 37 38 38 39 39 40 41 42 43 44 45 46 47 48 49 50 50 51 52 52 52 52 51 51 51 52
65 66 67 66 66 65 65 64 64 63 62 61 61 60 59 57 54 51 46 42 39 36 35 35 35 35 35 35 35 35 35 35 35 35 35 36 37 38 39 39 39 39 40 39 39 39 38 38 38 37 37 37 37 36 36 37 37 38 38 38 39 39 40 40 41 41 42 43 44 45 45 47 48 49 50 50 51 51 51 51 50 50 50 51 51 52
64 65 66 66 66 65 65 64 64 63 63 62 61 59 57 54 51 47 43 40 37 36 35 35 35 35 35 35 35 35 35 35 36 36 37 38 38 39 40 40 40 41 41 41 41 40 40 40 40 40 39 39 39 38 37 38 38 39 40 40 41 41 42 42 43 43 44 45 45 46 47 47 48 49 49 50 50 50 49 49 49 49 50 51 51 52
64 64 65 65 65 64 64 64 63 63 63 62 60 57 54 51 48 45 42 39 37 36 36 36 36 36 36 36 36 36 36 36 37 38 39 40 40 41 41 42 42 42 42 43 43 43 43 43 43 43 42 42 41 41 40 40 40 40 41 41 42 42 42 43 44 45 45 46 46 47 47 47 47 48 48 48 48 48 48 48 49 50 51 52 53 53
64 64 64 63 63 63 63 63 63 63 62 61 58 55 51 48 45 42 40 39 37 36 36 36 36 36 36 36 36 36 37 38 39 39 40 41 41 42 42 43 43 43 44 44 45 45 45 45 45 45 44 44 44 43 42 41 41 41 41 41 41 42 42 43 44 44 44 45 45 45 45 45 45 45 45 46 46 47 48 49 50 51 52 53 54 55
65 64 63 62 62 62 63 62 62 62 61 59 56 53 49 45 43 40 39 38 37 37 37 37 36 36 36 37 37 38 38 39 40 41 41 42 43 43 43 44 44 44 45 45 45 45 45 45 45 45 44 44 44 43 43 42 41 41 41 41 41 40 41 41 42 42 42 43 43 43 43 43 44 44 44 45 46 47 48 50 51 52 53 54 55 57
66 64 63 62 62 62 62 62 62 61 60 58 55 51 47 44 42 40 39 38 38 38 37 37 37 37 38 38 39 39 40 40 41 42 43 43 43 44 44 44 44 44 44 45 45 45 44 44 44 44 44 43 43 43 43 42 42 42 41 41 41 41 41 41 42 42 43 43 43 44 44 44 45 46 46 47 48 49 50 51 52 54 54 55 57 58
65 64 63 62 62 63 63 64 63 62 60 57 53 50 46 43 41 40 39 39 39 38 38 38 38 39 39 40 40 41 42 42 43 43 43 44 44 44 44 44 44 44 44 45 44 44 44 43 43 43 43 43 43 44 44 44 43 43 43 43 43 43 44 44 44 45 45 46 46 47 47 48 48 49 50 50 50 51 51 52 53 54 55 56 57 59
65 64 63 63 63 64 64 65 64 62 60 56 51 47 44 42 41 40 40 40 40 40 39 39 39 40 40 41 41 42 43 43 43 44 44 44 44 44 44 44 44 44 44 44 44 44 44 43 43 43 43 44 45 45 45 45 44 44 44 44 45 45 46 46 46 47 48 48 48 49 50 51 52 52 52 52 52 52 52 53 53 54 55 56 58 59
64 63 63 63 64 65 65 65 64 62 58 54 49 45 42 41 41 41 41 41 41 41 41 41 41 42 43 43 43 43 43 44 44 44 44 44 44 44 44 44 44 44 44 44 44 44 44 44 44 44 44 45 45 45 45 45 44 44 44 44 45 45 46 46 47 47 48 49 50 50 51 52 53 54 54 54 54 53 53 53 54 54 55 56 58 59
63 63 63 64 64 65 66 65 64 61 56 52 48 44 42 41 41 42 42 43 43 43 42 42 43 44 45 45 44 45 44 44 44 44 44 44 44 44 44 44 44 44 44 44 44 44 44 44 44 44 44 44 44 44 44 43 43 42 42 42 43 44 45 45 46 47 48 49 50 51 52 54 54 55 56 55 55 54 54 54 55 55 56 57 58 59
63 64 64 65 65 66 66 65 62 59 54 50 47 44 42 42 43 44 44 44 44 44 43 44 45 45 46 46 45 45 45 45 45 45 45 45 44 44 44 43 44 44 44 44 45 44 44 44 44 43 43 43 43 43 42 41 41 41 41 41 42 43 44 45 46 47 48 50 51 52 54 55 56 57 57 57 56 56 56 55 56 56 56 57 58 59
64 65 66 66 66 66 65 63 60 56 52 49 46 45 45 45 46 47 47 46 45 45 45 46 46 47 47 47 46 46 46 46 46 46 46 45 44 44 44 44 44 44 44 44 44 44 44 43 43 42 42 42 42 42 41 41 40 40 40 41 42 44 46 47 48 49 50 52 53 54 55 56 58 58 58 58 58 58 57 57 57 57 57 58 59 60
66 67 67 67 66 65 63 60 57 54 50 48 47 47 48 48 49 48 48 47 46 46 47 48 48 48 48 48 47 47 47 47 47 46 46 45 45 44 44 43 44 44 44 44 43 43 43 42 42 41 41 41 42 42 41 41 41 41 42 43 45 47 48 49 50 51 52 53 54 55 56 57 58 59 59 60 60 60 59 59 58 58 58 59 60 60
67 67 67 66 64 62 59 57 54 52 50 49 49 49 50 51 50 49 48 47 47 47 48 48 49 49 49 49 49 48 48 48 47 47 46 46 45 45 44 44 44 44 44 43 43 43 42 42 41 41 41 41 42 43 43 43 43 44 45 47 49 50 51 52 52 53 54 54 55 56 57 58 59 59 60 61 61 61 61 61 60 60 59 60 60 61
68 66 65 63 60 58 56 54 52 51 50 50 51 51 52 51 51 49 48 48 48 48 49 49 50 50 50 50 50 49 49 49 48 48 47 46 46 46 45 45 45 44 44 43 43 42 42 42 42 42 42 42 43 44 45 47 48 49 51 52 53 55 55 55 55 55 56 56 57 58 58 59 60 60 61 62 62 63 63 62 61 61 60 60 61 61